Regional Weather Roundup
Issued by NWS

Home | Current Version | Previous Version | Graphics & Text | Print | Product List | Glossary On
Versions: 1 2 3 4 5 6 7 8 9 10 11 12 13 14 15 16 17 18 19 20 21 22 23 24 25 26 27 28 29 30 31 32 33 34 35 36 37 38 39 40 41 42 43 44 45 46 47 48 49 50
884
ASUS43 KDTX 211810
RWRMI
MICHIGAN HOURLY REGIONAL WEATHER ROUNDUP
NATIONAL WEATHER SERVICE DETROIT/PONTIAC MI
200 PM EDT THU MAY 21 2015

NOTE: "FAIR" INDICATES FEW OR NO CLOUDS BELOW 12,000 FEET WITH NO
SIGNIFICANT WEATHER AND/OR OBSTRUCTION TO VISIBILITY.

MIZ047>049-052>055-059>063-066>070-074>076-081>083-211900-
SOUTHEAST LOWER MICHIGAN

CITY           SKY/WX    TMP DP  RH WIND       PRES   REMARKS
ADRIAN         SUNNY     60  35  39 W8G17     30.00F
6HR MIN TEMP:  48; 6HR MAX TEMP:  60;

ALMA           PTSUNNY   64  37  36 W10       29.96S
ANN ARBOR      SUNNY     60  38  43 W9G17     29.98F
BAD AXE        SUNNY     64  33  31 W16       29.92S
CARO           MOSUNNY   66  38  34 SW10G17   29.92F
DETROIT CITY   MOSUNNY   60  34  37 W10       29.97F
6HR MIN TEMP:  51; 6HR MAX TEMP:  62;

DETROIT        PTSUNNY   63  38  39 VRB5      29.99F
6HR MIN TEMP:  51; 6HR MAX TEMP:  63;

FLINT          SUNNY     65  38  36 W12G22    29.95F
6HR MIN TEMP:  51; 6HR MAX TEMP:  65;

GROSSE ILE     MOSUNNY   61  34  36 SW12      29.97F
HILLSDALE      MOSUNNY   59  38  46 W10G18    30.01F
HOWELL         MOSUNNY   61  39  44 W10       29.97F
6HR MIN TEMP:  48; 6HR MAX TEMP:  61;


CITY           SKY/WX    TMP DP  RH WIND       PRES   REMARKS
JACKSON        MOSUNNY   58  41  53 W17       30.00F
6HR MIN TEMP:  46; 6HR MAX TEMP:  59;

LAMBERTVILLE   CLOUDY    59  32  36 SW7       30.01F
LANSING        PTSUNNY   62  38  40 W21G29    29.99F
6HR MIN TEMP:  46; 6HR MAX TEMP:  62;

LAPEER         FAIR      63  34  34 NW10      29.94F
MASON          PTSUNNY   59  40  48 W9G16     29.99S
MONROE         SUNNY     61  36  39 W10       29.99F
MT. CLEMENS    CLOUDY    62  38  41 W6G17     29.94F
6HR MIN TEMP:  52; 6HR MAX TEMP:  62;

PONTIAC        PTSUNNY   60  37  42 W12       29.95F
6HR MIN TEMP:  49; 6HR MAX TEMP:  61;

PORT HOPE        N/A     65  34  31 W13       29.88F
6HR MIN TEMP:  51; 6HR MAX TEMP:  65;

PORT HURON     MOSUNNY   61  37  41 SW7       29.94F
TRI CITIES     MOSUNNY   67  34  29 W14G22    29.93F
6HR MIN TEMP:  48; 6HR MAX TEMP:  68;

MIDLAND        FAIR      68  33  27 W13G21    29.92S
TROY           MOSUNNY   62  33  34 W10G16    29.98F
SAGINAW HB     SUNNY     66  32  28 W14       29.93S
$$
MIZ043>046-050>051-056>058-064>065-071>073-077>080-211900-
SOUTHWEST LOWER MICHIGAN

CITY           SKY/WX    TMP DP  RH WIND       PRES   REMARKS
BATTLE CREEK   MOSUNNY   59  41  51 W10       30.02F
6HR MIN TEMP:  46; 6HR MAX TEMP:  59;

BENTON HARBOR  MOSUNNY   54  44  69 W12       30.06F
6HR MIN TEMP:  45; 6HR MAX TEMP:  54;

BIG RAPIDS     MOSUNNY   63  24  22 W13G20    29.94F
6HR MIN TEMP:  46; 6HR MAX TEMP:  64;

COLDWATER      MOSUNNY   57  40  52 W12G17    30.03F
6HR MIN TEMP:  45; 6HR MAX TEMP:  58;

FREMONT        FAIR      62  24  23 W13       29.97F
6HR MIN TEMP:  44; 6HR MAX TEMP:  64;

HOLLAND        MOSUNNY   55  42  61 W13       30.04F
6HR MIN TEMP:  46; 6HR MAX TEMP:  57;

GRAND RAPIDS   PTSUNNY   61  34  36 W14       30.00F
6HR MIN TEMP:  45; 6HR MAX TEMP:  62;

IONIA          FAIR      63  33  32 W17       29.98F
KALAMAZOO      MOSUNNY   59  39  47 W12       30.04F
6HR MIN TEMP:  46; 6HR MAX TEMP:  59;

LUDINGTON      SUNNY     56  42  58 SW13      29.97F
6HR MIN TEMP:  48; 6HR MAX TEMP:  56;

MARSHALL       PTSUNNY   59  41  51 W10G16    30.01F
MOUNT PLEASANT MOSUNNY   66  32  28 SW12G17   29.93F
6HR MIN TEMP:  46; 6HR MAX TEMP:  67;

MUSKEGON       PTSUNNY   55  41  59 SW13      30.01F
6HR MIN TEMP:  47; 6HR MAX TEMP:  56;

SOUTH HAVEN    SUNNY     54  42  64 W7        30.05F
$$
MIZ016>042-211900-
NORTHERN LOWER MICHIGAN

CITY           SKY/WX    TMP DP  RH WIND       PRES   REMARKS
ALPENA         MOSUNNY   71  30  21 W15G24    29.83F
6HR MIN TEMP:  48; 6HR MAX TEMP:  71;

BEAVER ISLAND  PTSUNNY   53  38  57 SW12      29.90F
6HR MIN TEMP:  47; 6HR MAX TEMP:  55;

BELLAIRE       PTSUNNY   64  33  32 W5        29.89F
6HR MIN TEMP:  46; 6HR MAX TEMP:  66;

CADILLAC       MOSUNNY   66  31  27 W14G21    29.91F
CHARLEVOIX     PTSUNNY   56  39  52 W14       29.92F
6HR MIN TEMP:  48; 6HR MAX TEMP:  58;

FRANKFORT      PTSUNNY   55  36  47 SW10G16   29.94F
GAYLORD        MOSUNNY   65  31  28 W12G22    29.88F
6HR MIN TEMP:  44; 6HR MAX TEMP:  66;

GRAYLING       SUNNY     68  30  24 W13G22    29.89F
HARBOR SPRINGS MOSUNNY   54  37  52 W13G21    29.90S
HOUGHTON LAKE  SUNNY     65  31  28 NW12G22   29.91S
6HR MIN TEMP:  46; 6HR MAX TEMP:  66;

MANISTEE       SUNNY     59  37  44 SW9G21    29.96F
OSCODA         SUNNY     71  32  23 W15       29.85F
PELLSTON       MOSUNNY   60  35  39 W14       29.88F
6HR MIN TEMP:  48; 6HR MAX TEMP:  61;

ROGERS CITY    PTSUNNY   67  34  29 W12G18    29.84F
TRAVERSE CITY  PTSUNNY   66  31  27 W14G23    29.90F
6HR MIN TEMP:  48; 6HR MAX TEMP:  68;

$$
MIZ007>008-015-211900-
EASTERN UPPER MICHIGAN

CITY           SKY/WX    TMP DP  RH WIND       PRES   REMARKS
KINROSS        PTSUNNY   57  32  38 NW16G26   29.85S
6HR MIN TEMP:  41; 6HR MAX TEMP:  61;

MACKINAC ISLAN SUNNY     52  39  62 SW13G21   29.88S
NEWBERRY       MOSUNNY   56  30  36 N15G28    29.90R
6HR MIN TEMP:  44; 6HR MAX TEMP:  59;

S. S. MARIE    SUNNY     54  32  43 W14G24    29.86R
6HR MIN TEMP:  40; 6HR MAX TEMP:  56; 6HR PCP: TRACE;

MUNISING         N/A     45  34  65 NW16      29.97R
6HR MIN TEMP:  43; 6HR MAX TEMP:  53;

$$
MIZ004>006-011>014-085-211900-
CENTRAL UPPER MICHIGAN

CITY           SKY/WX    TMP DP  RH WIND       PRES   REMARKS
MANISTIQUE     CLOUDY    61  30  30 N16G23    29.90S
6HR MIN TEMP:  47; 6HR MAX TEMP:  63;

ESCANABA       SUNNY     63  34  34 N12G18    29.91S
6HR MIN TEMP:  46; 6HR MAX TEMP:  63;

MENOMINEE      PTSUNNY   70  34  26 NW10G16   29.87F
6HR MIN TEMP:  46; 6HR MAX TEMP:  70;

SAWYER-GWINN   SUNNY     54  27  35 NE17G24   29.96R
$$
MIZ001>003-009>011-084-211900-
WESTERN UPPER MICHIGAN

CITY           SKY/WX    TMP DP  RH WIND       PRES   REMARKS
IRON MOUNTAIN  MOSUNNY   68  36  30 N16G26    29.89R
6HR MIN TEMP:  46; 6HR MAX TEMP:  69;

HOUGHTON       SUNNY     55  28  35 VRB7G17   29.99R
6HR MIN TEMP:  45; 6HR MAX TEMP:  57;

COPPER HARBOR    N/A     45  36  70 N10       29.99S
6HR MIN TEMP:  42; 6HR MAX TEMP:  46;

IRONWOOD       SUNNY     55  30  38 N12       29.99R
6HR MIN TEMP:  50; 6HR MAX TEMP:  57;

$$

ABBREVIATIONS USED IN REMARKS
   TC - TEMPERATURE IN CELSIUS
  WCI - WIND CHILL INDEX
   HX - HEAT INDEX
  VSB - VISIBILITY




USA.gov is the U.S. government's official web portal to all federal, state and local government web resources and services.